{"data":{"norad_id":65227,"intl_designator":"2025-154L","name":"SKYKRAFT-4E","alt_names":[],"object_type":"PAYLOAD","status":"ACTIVE","operator":null,"country":"AUS","launch_date":"2025-07-23","launch_site_code":"AFWTR","launch_vehicle":null,"mission":null,"orbit_class":"UNKNOWN","rcs_meters":null,"size_class":null,"mass_kg":null,"dimensions":null,"purposes":[],"wikipedia_slug":null,"has_3d_model":false,"image_url":null,"decayed_at":null,"tle_current":{"epoch":"2026-09-21T17:56:08.760768Z","epoch_age_seconds":54515,"freshness":"FRESH","line1":"1 65227U 25154L   26264.74732362  .00002934  00000+0  24735-3 0  9994","line2":"2 65227  97.6616 327.8639 0003712 315.3729  44.7195 14.98935625 61795","mean_motion":14.98935625,"eccentricity":0.0003712,"inclination_deg":97.6616,"raan_deg":327.8639,"arg_perigee_deg":315.3729,"mean_anomaly_deg":44.7195,"bstar":0.00024735,"rev_number":6179,"period_min":96.06816837114,"perigee_km":567.60445956529,"apogee_km":572.7628928353,"semimajor_km":6948.3206762003,"source":"CELESTRAK","updated_at":"2026-09-22T09:00:30.213239Z"}}}